#timestamp,LO_Frequency,Hit,StdDev 
1550700015.3,286046999.4,N
1550700035.1,286046998.2,N
1550700055.8,286046998.7,N
1550700075.7,286046999.3,N
1550700095.5,286046995.6,N
1550700115.4,286046996.6,N
1550700135.2,286047000.8,N
1550700155.0,286047000.9,N
1550700155.9,286047000.9,N
1550700175.8,286047001.2,N
1550700195.6,286047002.7,N
1550700215.5,286046998.7,N
1550700235.3,286046999.2,N
1550700255.1,286046995.0,N
1550700275.9,286046997.8,N
1550700295.7,286046995.2,N
1550700315.5,286046997.3,N
1550700335.4,286046997.7,N
1550700355.2,286046995.9,N
1550700375.1,286046996.9,N
1550700376.0,286046996.9,N
1550700395.8,286046996.6,N
1550700415.6,286046997.5,N
1550700435.5,286046998.7,N
1550700455.3,286046999.9,N
1550700475.1,286047002.5,N
1550700495.9,286047000.3,N
1550700515.7,286047000.6,N
1550700535.6,286046998.1,N
1550700555.4,286046996.8,N
1550700575.2,286046996.6,N
1550700595.1,286046995.4,N
1550700596.0,286046995.4,N
1550700615.8,286046995.6,N
1550700635.6,286046993.9,N
1550700655.5,286046994.5,N
1550700675.3,286046995.2,N
1550700695.2,286046999.4,N
1550700715.9,286047001.2,N
1550700735.7,286047001.6,N
1550700755.6,286046998.3,N
1550700775.4,286046998.9,N
1550700795.2,286047000.3,N
1550700815.1,286047001.7,N
1550700816.0,286047001.7,N
1550700835.8,286047002.6,N
1550700855.7,286047001.0,N
1550700875.5,286047002.8,N
1550700895.3,286047002.5,N
1550700915.2,286047001.1,N
1550700935.0,286047000.9,N
1550700935.9,286047000.9,N
1550700955.8,286046998.5,N
1550700975.6,286047000.7,N
1550700995.4,286046998.1,N
1550701015.3,286047002.2,N
1550701035.1,286047000.0,N
1550701055.9,286046996.7,N
1550701075.7,286046998.3,N
1550701095.5,286046998.5,N
1550701115.4,286047000.1,N
1550701135.2,286047000.0,N
1550701155.1,286046998.7,N
1550701156.0,286046998.7,N
1550701175.8,286046998.5,N
1550701195.6,286046999.5,N
1550701215.5,286046998.0,N
1550701235.3,286046997.1,N
1550701255.1,286046995.3,N
1550701275.9,286046995.1,N
1550701295.7,286046995.8,N
1550701315.6,286046995.5,N
1550701335.4,286046995.7,N
1550701355.2,286046997.6,N
1550701375.1,286046993.8,N
1550701376.0,286046993.8,N
1550701395.8,286046993.4,N
1550701415.6,286046993.6,N
1550701435.5,286046993.8,N
1550701455.3,286046996.4,N
1550701475.2,286046997.9,N
1550701495.9,286046995.6,N
1550701515.7,286046995.9,N
1550701535.6,286046992.2,Y
1550701555.4,286046997.8,P
1550701575.3,286046996.1,P
1550701595.1,286046998.0,N
1550701596.0,286046998.0,N
1550701615.8,286046993.4,Y
1550701635.7,286046997.5,P
1550701655.5,286046997.8,P
1550701675.3,286046998.8,P
1550701695.2,286046999.6,N
1550701715.0,286047010.3,Y
1550701715.9,286047010.3,P
1550701735.8,286047009.9,N
1550701755.6,286047007.8,N
1550701775.4,286047008.3,N
1550701795.3,286047004.6,N
1550701815.1,286047003.5,N
1550701835.9,286047001.9,N
1550701855.7,286047000.9,N
1550701875.5,286046998.5,N
1550701895.4,286046996.8,N
1550701915.2,286046997.9,N
1550701935.0,286046994.9,N
1550701935.9,286046994.9,N
1550701955.8,286046995.0,N
1550701975.6,286046997.0,N
1550701995.5,286046997.5,N
1550702015.3,286046997.6,N
1550702035.1,286046995.2,N
1550702055.9,286046994.6,N
1550702075.7,286046994.7,N
1550702095.5,286046993.5,N
1550702115.4,286046996.0,N
1550702135.2,286046995.9,N
1550702155.0,286046996.0,N
1550702156.0,286046996.0,N
1550702175.8,286046994.6,N
1550702195.6,286046992.3,N
1550702215.5,286046990.9,N
1550702235.3,286046992.1,N
1550702255.1,286046992.1,N
1550702275.9,286046992.5,N
1550702295.7,286046992.3,N
1550702315.6,286046992.9,N
1550702335.5,286046992.4,N
1550702355.3,286046990.3,N
1550702375.2,286046993.2,N
1550702395.9,286046990.7,Y
1550702415.7,286046994.9,P
1550702435.6,286046997.9,P
1550702455.4,286046997.2,N
1550702475.3,286046997.1,N
1550702495.1,286046997.6,N
1550702496.0,286046997.6,N
1550702515.8,286046996.3,Y
1550702535.7,286046999.5,P
1550702555.5,286046998.5,N
1550702575.3,286046998.9,N
1550702595.2,286046996.5,Y
1550702615.0,286047000.9,P
1550702615.9,286047000.9,N
1550702635.8,286046998.4,N
1550702655.6,286046998.7,N
1550702675.4,286047000.6,N
1550702695.3,286046998.1,N
1550702715.1,286047001.0,N
1550702735.9,286047000.3,N
1550702785.7,286047000.8,E
1550702795.6,286046999.0,N
1550702815.5,286046999.1,P
1550702835.3,286046996.7,P
1550702855.2,286046996.9,N
1550702875.9,286046997.2,N
1550702895.7,286046996.6,Y
1550702915.6,286046998.5,P
1550702935.4,286046999.8,N
1550702955.3,286046999.7,N
1550702975.1,286047002.7,Y
1550702976.0,286047002.7,P
1550702995.8,286047002.4,N
1550703015.7,286047000.6,N
1550703035.5,286047000.9,N
1550703055.4,286046998.6,N
1550703075.2,286046998.8,N
1550703095.0,286046998.8,N
1550703095.9,286046998.8,N
1550703115.8,286046998.5,N
1550703135.6,286046998.8,N
1550703155.5,286046998.5,N
1550703175.3,286046998.4,N
1550703195.1,286047000.0,N
1550703215.9,286046998.9,N
1550703235.7,286046997.0,N
1550703255.5,286046998.4,N
1550703275.4,286046998.4,N
1550703295.2,286047000.9,N
1550703315.1,286047000.6,N
1550703316.0,286047000.6,N
1550703335.8,286046998.6,N
1550703355.6,286046998.3,N
1550703375.5,286047000.6,N
1550703395.3,286047002.1,N
1550703415.1,286047001.4,N
1550703435.9,286047002.3,N
1550703455.7,286047002.5,N
1550703475.6,286047000.3,N
1550703495.4,286046998.2,N
1550703515.2,286046998.9,N
1550703535.1,286046998.7,N
1550703536.0,286046998.7,N
1550703555.8,286046999.0,N
1550703575.7,286046998.7,N
1550703595.5,286047000.8,N
